GW3691 Weather Reports


Display with metric or nautical units.
time (UTC)temp
F
wind
direction
speed
MPH
gust
MPH
rain 1hr
in
rain 24hr
in
rain mn
in
humidity
%
barometer
mb
20260508220327 74 183 2.0 3.0 5.17 0.88 0.88 92 1016.5
20260508215824 75 235 4.0 6.0 1.39 0.23 0.23 90 1016.3
20260508215320 77 192 2.0 2.0 0.00 0.00 0.00 87 1015.5
20260508214817 78 129 2.0 2.0 0.00 0.00 0.00 85 1015.4
20260508214314 78 124 1.0 1.0 0.00 0.00 0.00 84 1015.3
20260508213811 78 115 0.0 1.0 0.00 0.00 0.00 83 1015.4
20260508213308 79 39 4.0 5.0 0.00 0.00 0.00 82 1015.8
20260508212804 79 145 1.0 1.0 0.00 0.00 0.00 83 1015.5
20260508212300 79 85 1.0 1.0 0.00 0.00 0.00 83 1015.6
20260508211756 78 139 1.0 1.0 0.00 0.00 0.00 83 1015.8
20260508211252 79 187 1.0 2.0 0.00 0.00 0.00 83 1016.0
20260508210750 79 136 1.0 1.0 0.00 0.00 0.00 82 1016.1
20260508210247 79 126 1.0 1.0 0.00 0.00 0.00 81 1016.3
20260508205743 80 151 2.0 2.0 0.00 0.00 0.00 81 1016.1
20260508205240 80 109 3.0 5.0 0.00 0.00 0.00 80 1016.1
20260508204736 80 145 3.0 3.0 0.00 0.00 0.00 79 1016.1
20260508204233 81 137 2.0 3.0 0.00 0.00 0.00 79 1016.2
20260508203729 82 38 2.0 5.0 0.00 0.00 0.00 77 1016.3
20260508203225 81 93 1.0 2.0 0.00 0.00 0.00 78 1016.3
20260508202721 81 106 1.0 2.0 0.00 0.00 0.00 78 1016.1
20260508202218 82 143 3.0 3.0 0.00 0.00 0.00 77 1015.9
20260508201716 82 113 0.0 1.0 0.00 0.00 0.00 77 1016.1
20260508201212 84 83 3.0 5.0 0.00 0.00 0.00 74 1016.2
20260508200709 83 153 2.0 2.0 0.00 0.00 0.00 75 1016.4
20260508200205 83 147 1.0 2.0 0.00 0.00 0.00 76 1016.4
20260508195702 84 148 2.0 2.0 0.00 0.00 0.00 75 1016.4
20260508195158 84 81 3.0 5.0 0.00 0.00 0.00 75 1016.6
20260508194654 85 110 2.0 2.0 0.00 0.00 0.00 72 1016.6
20260508194151 83 144 1.0 2.0 0.00 0.00 0.00 76 1016.7
20260508193648 83 100 4.0 6.0 0.00 0.00 0.00 75 1016.7
20260508193145 84 109 3.0 5.0 0.00 0.00 0.00 75 1016.7
20260508192642 85 170 4.0 7.0 0.00 0.00 0.00 73 1016.7
20260508192139 85 121 1.0 1.0 0.00 0.00 0.00 73 1016.7
20260508191636 84 150 1.0 1.0 0.00 0.00 0.00 73 1017.0
20260508191132 84 146 3.0 5.0 0.00 0.00 0.00 73 1016.7
20260508190630 85 146 1.0 1.0 0.00 0.00 0.00 72 1017.2
20260508190126 84 65 1.0 1.0 0.00 0.00 0.00 75 1017.2
20260508185623 86 126 1.0 1.0 0.00 0.00 0.00 71 1017.2
20260508185121 86 99 1.0 2.0 0.00 0.00 0.00 72 1017.4
20260508184618 85 61 1.0 2.0 0.00 0.00 0.00 74 1017.5
20260508184115 84 104 4.0 6.0 0.00 0.00 0.00 74 1017.5
20260508183611 83 117 2.0 3.0 0.00 0.00 0.00 76 1017.4
20260508183107 82 132 1.0 1.0 0.00 0.00 0.00 76 1017.7
20260508182604 83 85 3.0 6.0 0.00 0.00 0.00 74 1017.8
20260508182100 82 164 3.0 5.0 0.00 0.00 0.00 77 1017.8
20260508181555 84 90 3.0 3.0 0.00 0.00 0.00 74 1017.7
20260508181054 85 136 1.0 1.0 0.00 0.00 0.00 73 1017.9
20260508180550 84 66 4.0 6.0 0.00 0.00 0.00 73 1018.1
20260508180046 84 147 1.0 2.0 0.00 0.00 0.00 74 1018.1
20260508175543 85 182 1.0 2.0 0.00 0.00 0.00 72 1017.9
20260508175040 85 111 2.0 2.0 0.00 0.00 0.00 74 1018.1
20260508174538 86 122 4.0 7.0 0.00 0.00 0.00 71 1017.9
20260508174034 86 146 1.0 1.0 0.00 0.00 0.00 71 1018.1
20260508173531 86 65 2.0 5.0 0.00 0.00 0.00 73 1017.8
20260508173027 84 145 1.0 1.0 0.00 0.00 0.00 74 1018.3
20260508172524 84 152 1.0 1.0 0.00 0.00 0.00 74 1018.2
20260508172021 85 123 0.0 0.0 0.00 0.00 0.00 72 1018.4
20260508171518 85 96 3.0 3.0 0.00 0.00 0.00 72 1018.4
20260508171014 86 163 1.0 2.0 0.00 0.00 0.00 72 1018.1
20260508170512 85 81 0.0 1.0 0.00 0.00 0.00 73 1018.4
20260508170009 86 131 2.0 5.0 0.00 0.00 0.00 71 1018.6
20260508165506 85 112 1.0 2.0 0.00 0.00 0.00 73 1018.6
20260508165002 85 29 1.0 2.0 0.00 0.00 0.00 74 1018.5
20260508164459 84 91 2.0 2.0 0.00 0.00 0.00 75 1018.8
20260508163956 85 106 1.0 1.0 0.00 0.00 0.00 74 1018.6
20260508163454 85 131 1.0 1.0 0.00 0.00 0.00 73 1018.7
20260508162949 85 172 1.0 1.0 0.00 0.00 0.00 72 1018.7
20260508162447 84 104 1.0 2.0 0.00 0.00 0.00 75 1018.9
20260508161943 86 345 1.0 2.0 0.00 0.00 0.00 73 1019.0
20260508161441 86 138 1.0 2.0 0.00 0.00 0.00 72 1018.8
20260508160938 84 279 1.0 2.0 0.00 0.00 0.00 75 1019.0
20260508160437 81 158 1.0 2.0 0.00 0.00 0.00 78 1019.0
20260508155932 82 127 2.0 3.0 0.00 0.00 0.00 78 1019.2
20260508155430 82 137 1.0 1.0 0.00 0.00 0.00 77 1019.2
20260508154926 82 92 1.0 2.0 0.00 0.00 0.00 77 1019.3
20260508154424 84 124 1.0 1.0 0.00 0.00 0.00 75 1019.2
20260508153920 83 160 0.0 1.0 0.00 0.00 0.00 74 1019.1
20260508153418 85 210 3.0 5.0 0.00 0.00 0.00 72 1019.3
20260508152914 85 178 0.0 0.0 0.00 0.00 0.00 72 1018.9
20260508152411 83 145 0.0 0.0 0.00 0.00 0.00 76 1019.2
20260508151907 83 164 1.0 2.0 0.00 0.00 0.00 74 1019.4
20260508151404 83 147 0.0 1.0 0.00 0.00 0.00 75 1019.2
20260508150900 83 169 0.0 1.0 0.00 0.00 0.00 76 1019.4
20260508150357 84 186 2.0 2.0 0.00 0.00 0.00 74 1019.5
20260508145853 84 136 3.0 3.0 0.00 0.00 0.00 74 1019.3
20260508145349 83 290 3.0 7.0 0.00 0.00 0.00 76 1019.3
20260508144846 82 186 3.0 3.0 0.00 0.00 0.00 76 1019.3
20260508144344 82 173 0.0 0.0 0.00 0.00 0.00 77 1019.1
20260508143841 83 177 2.0 2.0 0.00 0.00 0.00 76 1019.1
20260508143338 83 162 2.0 2.0 0.00 0.00 0.00 75 1019.1
20260508142835 82 130 1.0 2.0 0.00 0.00 0.00 77 1019.2
20260508142332 82 199 2.0 3.0 0.00 0.00 0.00 77 1019.1
20260508141828 81 202 2.0 3.0 0.00 0.00 0.00 78 1018.9
20260508141325 81 170 2.0 2.0 0.00 0.00 0.00 79 1019.1
20260508140823 82 204 2.0 2.0 0.00 0.00 0.00 77 1018.8
20260508140320 82 160 1.0 1.0 0.00 0.00 0.00 78 1019.1
20260508135815 82 205 1.0 2.0 0.00 0.00 0.00 79 1019.1
20260508135312 82 167 1.0 1.0 0.00 0.00 0.00 78 1018.9
20260508134808 81 165 1.0 2.0 0.00 0.00 0.00 79 1019.0
20260508134305 81 150 0.0 1.0 0.00 0.00 0.00 80 1018.9
20260508133802 80 169 1.0 1.0 0.00 0.00 0.00 81 1018.7
20260508133259 79 169 0.0 1.0 0.00 0.00 0.00 83 1019.1
20260508132757 80 167 0.0 0.0 0.00 0.00 0.00 83 1019.0
20260508132254 80 153 0.0 0.0 0.00 0.00 0.00 84 1018.8
20260508131750 79 160 2.0 3.0 0.00 0.00 0.00 84 1018.9
20260508131246 79 197 1.0 1.0 0.00 0.00 0.00 85 1018.9
20260508130743 78 165 0.0 1.0 0.00 0.00 0.00 85 1019.0
20260508130240 78 199 3.0 3.0 0.00 0.00 0.00 86 1019.1
20260508125736 78 129 3.0 3.0 0.00 0.00 0.00 86 1019.1
20260508125232 78 182 1.0 1.0 0.00 0.00 0.00 87 1018.9
20260508124731 78 171 2.0 3.0 0.00 0.00 0.00 87 1018.7
20260508124227 77 216 1.0 2.0 0.00 0.00 0.00 87 1018.8
20260508123726 77 155 1.0 1.0 0.00 0.00 0.00 88 1019.0
20260508123223 76 187 0.0 0.0 0.00 0.00 0.00 89 1018.7
20260508122719 76 161 0.0 1.0 0.00 0.00 0.00 90 1018.6
20260508122216 75 163 1.0 1.0 0.00 0.00 0.00 91 1018.8
20260508121714 75 160 0.0 0.0 0.00 0.00 0.00 91 1018.5
20260508121212 75 181 1.0 2.0 0.00 0.00 0.00 91 1018.4
20260508120709 74 160 0.0 0.0 0.00 0.00 0.00 92 1018.4
20260508120207 74 165 1.0 1.0 0.00 0.00 0.00 93 1018.5
20260508115705 74 178 0.0 0.0 0.00 0.00 0.00 93 1018.1
20260508115202 74 168 1.0 2.0 0.00 0.00 0.00 93 1018.2
20260508114658 74 162 0.0 0.0 0.00 0.00 0.00 94 1018.4
20260508114155 73 159 0.0 0.0 0.00 0.00 0.00 94 1018.2
20260508113652 73 174 1.0 2.0 0.00 0.00 0.00 94 1018.0
20260508113150 73 166 0.0 0.0 0.00 0.00 0.00 94 1018.2
20260508112646 73 163 0.0 0.0 0.00 0.00 0.00 94 1018.2
20260508112143 73 189 0.0 0.0 0.00 0.00 0.00 94 1018.2
20260508111639 73 168 0.0 0.0 0.00 0.00 0.00 94 1018.3
20260508111137 73 172 0.0 0.0 0.00 0.00 0.00 94 1018.2
20260508110635 73 187 1.0 1.0 0.00 0.00 0.00 94 1017.9
20260508110131 73 170 0.0 0.0 0.00 0.00 0.00 94 1017.8
20260508105626 72 173 1.0 2.0 0.00 0.00 0.00 94 1017.8
20260508105123 72 174 0.0 0.0 0.00 0.00 0.00 94 1017.9
20260508104621 72 174 0.0 0.0 0.00 0.00 0.00 94 1017.5
20260508104117 72 172 0.0 0.0 0.00 0.00 0.00 94 1017.6
20260508103614 72 171 0.0 0.0 0.00 0.00 0.00 94 1017.5
20260508103112 72 157 0.0 0.0 0.00 0.00 0.00 94 1017.5
20260508102609 72 157 0.0 0.0 0.00 0.00 0.00 94 1017.4
20260508102107 72 157 0.0 0.0 0.00 0.00 0.00 94 1017.6
20260508101604 71 157 0.0 0.0 0.00 0.00 0.00 94 1017.3
20260508101101 71 157 0.0 0.0 0.00 0.00 0.00 94 1017.2
20260508100559 71 157 0.0 0.0 0.00 0.00 0.00 94 1017.3
20260508100055 71 157 0.0 0.0 0.00 0.00 0.00 94 1017.0
20260508095553 71 157 0.0 0.0 0.00 0.00 0.00 94 1017.1
20260508095049 71 157 0.0 0.0 0.00 0.00 0.00 94 1017.2
20260508094547 71 157 0.0 0.0 0.00 0.00 0.00 94 1017.1
20260508094043 71 157 0.0 0.0 0.00 0.00 0.00 94 1017.0
20260508093541 71 157 0.0 0.0 0.00 0.00 0.00 94 1017.1
20260508093038 71 156 0.0 0.0 0.00 0.00 0.00 94 1016.9
20260508092535 71 170 0.0 0.0 0.00 0.00 0.00 94 1016.6
20260508092034 71 170 0.0 0.0 0.00 0.00 0.00 94 1016.7
20260508091531 71 170 0.0 0.0 0.00 0.00 0.00 94 1016.5
20260508091028 71 170 0.0 0.0 0.00 0.00 0.00 94 1016.7
20260508090526 71 170 0.0 0.0 0.00 0.00 0.00 94 1016.7
20260508090022 71 170 0.0 0.0 0.00 0.00 0.00 93 1016.8
20260508085519 71 169 0.0 0.0 0.00 0.00 0.00 93 1016.7
20260508085016 71 169 0.0 0.0 0.00 0.00 0.00 93 1016.7
20260508084513 71 169 0.0 0.0 0.00 0.00 0.00 93 1016.8
20260508084010 71 169 0.0 0.0 0.00 0.00 0.00 93 1016.6
20260508083507 71 169 0.0 0.0 0.00 0.00 0.00 93 1016.9
20260508083004 72 169 0.0 0.0 0.00 0.00 0.00 93 1016.9
20260508082459 72 167 0.0 0.0 0.00 0.00 0.00 92 1016.7
20260508081957 72 167 0.0 0.0 0.00 0.00 0.00 92 1016.9
20260508081453 72 166 0.0 0.0 0.00 0.00 0.00 92 1016.8
20260508080944 72 165 0.0 0.0 0.00 0.00 0.00 92 1016.8
20260508080443 73 165 0.0 0.0 0.00 0.00 0.00 92 1016.7
20260508075939 73 164 0.0 0.0 0.00 0.00 0.00 92 1016.7
20260508075436 73 163 0.0 0.0 0.00 0.00 0.00 92 1016.8
20260508074933 73 165 0.0 0.0 0.00 0.00 0.00 91 1016.8
20260508074431 73 160 0.0 0.0 0.00 0.00 0.00 91 1017.1
20260508073928 73 168 0.0 1.0 0.00 0.00 0.00 91 1016.9
20260508073425 73 168 0.0 0.0 0.00 0.00 0.00 91 1017.0
20260508072922 73 183 1.0 1.0 0.00 0.00 0.00 90 1016.8
20260508072418 73 166 0.0 0.0 0.00 0.00 0.00 90 1016.8
20260508071916 73 166 0.0 0.0 0.00 0.00 0.00 90 1017.0
20260508071414 73 166 0.0 0.0 0.00 0.00 0.00 90 1017.4
20260508070911 73 211 0.0 0.0 0.00 0.00 0.00 90 1017.0
20260508070409 73 168 0.0 0.0 0.00 0.00 0.00 89 1017.2
20260508065907 73 166 1.0 1.0 0.00 0.00 0.00 89 1017.4
20260508065404 74 165 0.0 0.0 0.00 0.00 0.00 89 1017.3
20260508064902 74 163 0.0 0.0 0.00 0.00 0.00 89 1017.4
20260508064359 74 168 0.0 0.0 0.00 0.00 0.00 89 1017.4
20260508063857 74 170 0.0 0.0 0.00 0.00 0.00 88 1017.4
20260508063355 74 180 0.0 0.0 0.00 0.00 0.00 88 1017.3
20260508062851 74 175 1.0 1.0 0.00 0.00 0.00 88 1017.3
20260508062343 74 176 0.0 0.0 0.00 0.00 0.00 87 1017.2
20260508061840 74 204 1.0 2.0 0.00 0.00 0.00 87 1017.1
20260508061337 74 196 3.0 3.0 0.00 0.00 0.00 87 1017.3
20260508060833 75 167 0.0 0.0 0.00 0.00 0.00 87 1017.2
20260508060332 75 206 2.0 2.0 0.00 0.00 0.00 86 1017.2
20260508055826 75 182 1.0 1.0 0.00 0.00 0.00 86 1017.4
20260508055324 75 189 4.0 5.0 0.00 0.00 0.00 86 1017.6
20260508054821 75 182 0.0 2.0 0.00 0.00 0.00 85 1017.3
20260508054318 75 164 0.0 0.0 0.00 0.00 0.00 85 1017.7
20260508053815 75 183 1.0 1.0 0.00 0.00 0.00 85 1017.5
20260508053313 75 168 1.0 1.0 0.00 0.00 0.00 84 1017.6
20260508052810 75 166 1.0 2.0 0.00 0.00 0.00 84 1017.6
20260508052307 75 175 2.0 3.0 0.00 0.00 0.00 83 1017.8
20260508051803 75 163 1.0 1.0 0.00 0.00 0.00 83 1017.5
20260508051258 75 186 3.0 3.0 0.00 0.00 0.00 82 1017.6
20260508050755 75 180 0.0 0.0 0.00 0.00 0.00 82 1017.3
20260508050252 75 172 0.0 0.0 0.00 0.00 0.00 81 1017.7
20260508045748 76 163 1.0 1.0 0.00 0.00 0.00 81 1017.8
20260508045246 76 177 0.0 0.0 0.00 0.00 0.00 81 1017.3
20260508044743 76 271 3.0 5.0 0.00 0.00 0.00 80 1017.4
20260508044240 76 165 0.0 0.0 0.00 0.00 0.00 80 1017.3
20260508043736 76 167 0.0 0.0 0.00 0.00 0.00 79 1017.5
20260508043233 76 186 0.0 0.0 0.00 0.00 0.00 79 1017.4
20260508042730 77 167 0.0 0.0 0.00 0.00 0.00 78 1017.4
20260508042227 77 196 2.0 2.0 0.00 0.00 0.00 78 1017.5
20260508041724 77 173 1.0 1.0 0.00 0.00 0.00 77 1017.3
20260508041220 77 177 0.0 0.0 0.00 0.00 0.00 77 1017.2
20260508040717 77 166 0.0 0.0 0.00 0.00 0.00 77 1017.2
20260508040214 77 165 0.0 0.0 0.00 0.00 0.00 76 1017.3
20260508035712 77 154 2.0 2.0 0.00 0.00 0.00 76 1017.4
20260508035209 77 164 0.0 1.0 0.00 0.00 0.00 76 1017.2
20260508034705 78 172 1.0 1.0 0.00 0.00 0.00 75 1017.3
20260508034203 78 167 1.0 1.0 0.00 0.00 0.00 74 1017.3
20260508033659 78 174 1.0 1.0 0.00 0.00 0.00 74 1017.4
20260508033158 78 176 1.0 2.0 0.00 0.00 0.00 74 1017.5
20260508032655 78 168 2.0 2.0 0.00 0.00 0.00 74 1017.3
20260508032152 78 246 3.0 3.0 0.00 0.00 0.00 73 1017.4
20260508031649 78 198 1.0 2.0 0.00 0.00 0.00 73 1017.4
20260508031145 78 191 3.0 5.0 0.00 0.00 0.00 73 1017.2
20260508030641 78 166 1.0 1.0 0.00 0.00 0.00 73 1017.1
20260508030139 79 169 1.0 2.0 0.00 0.00 0.00 73 1016.8
20260508025635 79 171 1.0 1.0 0.00 0.00 0.00 73 1017.1
20260508025133 79 166 1.0 2.0 0.00 0.00 0.00 72 1017.1
20260508024628 79 167 0.0 1.0 0.00 0.00 0.00 72 1016.9
20260508024126 79 174 1.0 1.0 0.00 0.00 0.00 71 1017.0
20260508023622 79 177 2.0 2.0 0.00 0.00 0.00 70 1017.0
20260508023120 78 186 0.0 0.0 0.00 0.00 0.00 70 1016.8
20260508022615 79 165 0.0 0.0 0.00 0.00 0.00 69 1017.0
20260508022113 79 169 0.0 1.0 0.00 0.00 0.00 68 1016.8
20260508021608 79 209 2.0 2.0 0.00 0.00 0.00 68 1016.8
20260508021104 79 182 0.0 1.0 0.00 0.00 0.00 66 1016.7
20260508020602 79 175 1.0 1.0 0.00 0.00 0.00 65 1016.7
20260508020059 79 164 1.0 1.0 0.00 0.00 0.00 65 1016.6
20260508015557 79 170 0.0 0.0 0.00 0.00 0.00 64 1016.6
20260508015054 79 168 1.0 1.0 0.00 0.00 0.00 63 1016.4
20260508014550 79 170 0.0 0.0 0.00 0.00 0.00 62 1016.1
20260508014046 79 165 0.0 0.0 0.00 0.00 0.00 62 1016.3
20260508013542 80 178 0.0 0.0 0.00 0.00 0.00 61 1016.2
20260508013039 80 183 1.0 2.0 0.00 0.00 0.00 60 1016.3
20260508012537 80 164 0.0 0.0 0.00 0.00 0.00 59 1016.1
20260508012034 80 200 1.0 2.0 0.00 0.00 0.00 58 1016.0
20260508011533 80 166 0.0 1.0 0.00 0.00 0.00 58 1016.2
20260508011029 80 171 0.0 0.0 0.00 0.00 0.00 56 1016.3
20260508010526 81 173 1.0 1.0 0.00 0.00 0.00 55 1016.0
20260508010024 81 167 0.0 0.0 0.00 0.00 0.00 56 1016.1
20260508005520 81 172 2.0 2.0 0.00 0.00 0.00 55 1016.0
20260508005017 81 166 0.0 0.0 0.00 0.00 0.00 55 1016.0
20260508004513 81 168 0.0 0.0 0.00 0.00 0.00 55 1015.7
20260508004010 81 173 0.0 0.0 0.00 0.00 0.00 55 1016.1
20260508003506 81 166 0.0 1.0 0.00 0.00 0.00 57 1016.0
20260508003005 80 172 0.0 0.0 0.00 0.00 0.00 58 1015.8
20260508002459 80 172 0.0 0.0 0.00 0.00 0.00 62 1015.8
20260508001956 80 168 0.0 0.0 0.00 0.00 0.00 63 1015.8
20260508001453 79 162 0.0 0.0 0.00 0.00 0.00 73 1015.7
20260508000949 80 162 0.0 0.0 0.00 0.00 0.00 73 1015.6
20260508000445 80 162 0.0 0.0 0.00 0.00 0.00 73 1015.9
20260507235942 81 162 0.0 0.0 0.00 0.00 0.00 73 1015.7
20260507235439 82 162 0.0 0.0 0.00 0.00 0.00 73 1015.8
20260507234937 82 162 0.0 0.0 0.00 0.00 0.00 72 1015.7
20260507234433 83 159 0.0 0.0 0.00 0.00 0.00 71 1015.6
20260507233930 84 160 0.0 0.0 0.00 0.00 0.00 69 1015.7
20260507233426 84 144 0.0 0.0 0.00 0.00 0.00 67 1015.5
20260507232925 85 144 0.0 0.0 0.00 0.00 0.00 65 1015.5
20260507232421 85 147 0.0 0.0 0.00 0.00 0.00 65 1015.6
20260507231918 85 144 0.0 0.0 0.00 0.00 0.00 64 1015.4
20260507231415 86 138 0.0 0.0 0.00 0.00 0.00 64 1015.6
20260507230911 87 145 0.0 0.0 0.00 0.00 0.00 62 1015.5
20260507230409 87 152 0.0 0.0 0.00 0.00 0.00 62 1015.6
20260507225908 88 146 0.0 0.0 0.00 0.00 0.00 61 1015.5
20260507225405 88 123 0.0 0.0 0.00 0.00 0.00 60 1015.4
20260507224901 88 141 0.0 1.0 0.00 0.00 0.00 61 1015.4
20260507224357 88 156 0.0 0.0 0.00 0.00 0.00 60 1015.3
20260507223853 89 135 0.0 0.0 0.00 0.00 0.00 60 1015.3
20260507223350 89 154 0.0 0.0 0.00 0.00 0.00 58 1015.4
20260507222847 88 159 0.0 0.0 0.00 0.00 0.00 59 1015.4
20260507222343 88 162 0.0 0.0 0.00 0.00 0.00 60 1015.4
20260507221840 89 124 0.0 0.0 0.00 0.00 0.00 59 1015.6
20260507221337 88 151 0.0 0.0 0.00 0.00 0.00 60 1015.5
20260507220832 87 146 0.0 0.0 0.00 0.00 0.00 61 1015.4